This demonstration page uses our WeatherBlox Daily Observations layout. Learn more.

Left ArrowRight Arrow

Hourly Observations for May 28, 2021

Temp ( °F °C ) Dew Point ( °F °C ) Humidity (%) Winds ( mph kmh ) Pressure ( in mb ) Visibility ( mi km ) Precip ( " mm )
12:15 am 00:15 Mostly Cloudy 70 21 54 12 57 57 N 5 7 30.02 1017 10 16 0.00 0.00
12:35 am 00:35 Mostly Cloudy 68 20 55 13 64 64 N 3 6 30.03 1017 10 16 0.00 0.00
12:55 am 00:55 Cloudy 68 20 55 13 64 64 Calm 30.03 1017 10 16 0.00 0.00
1:15 am 01:15 Cloudy 70 21 54 12 57 57 Calm 30.02 1017 10 16 0.00 0.00
1:35 am 01:35 Cloudy 70 21 54 12 57 57 Calm 30.02 1017 10 16 0.00 0.00
1:55 am 01:55 Cloudy 70 21 54 12 57 57 NE 3 6 30.01 1016 10 16 0.00 0.00
2:15 am 02:15 Partly Cloudy 70 21 54 12 57 57 Calm 30.01 1016 10 16 0.00 0.00
2:35 am 02:35 Mostly Cloudy 68 20 54 12 60 60 NNE 3 6 30.01 1016 10 16 0.00 0.00
2:55 am 02:55 Partly Cloudy 66 19 55 13 68 68 Calm 30.00 1016 10 16 0.00 0.00
3:15 am 03:15 Mostly Cloudy 66 19 54 12 64 64 NE 3 6 30.00 1016 10 16 0.00 0.00
3:35 am 03:35 Mostly Cloudy 68 20 54 12 60 60 NE 3 6 30.00 1016 10 16 0.00 0.00
3:55 am 03:55 Mostly Cloudy 66 19 54 12 64 64 NNE 5 7 30.00 1016 10 16 0.00 0.00
4:15 am 04:15 Partly Cloudy 66 19 54 12 64 64 NNE 9 15 30.00 1016 10 16 0.00 0.00
4:35 am 04:35 Partly Cloudy 64 18 54 12 68 68 NNE 7 11 29.99 1016 10 16 0.00 0.00
4:55 am 04:55 Clear 64 18 54 12 68 68 NNE 7 11 29.99 1016 10 16 0.00 0.00
5:15 am 05:15 Clear 63 17 54 12 73 73 NE 3 6 30.00 1016 10 16 0.00 0.00
5:35 am 05:35 Clear 63 17 54 12 73 73 NE 5 7 29.99 1015 10 16 0.00 0.00
5:55 am 05:55 Sunny 63 17 54 12 73 73 NNE 5 7 30.00 1016 10 16 0.00 0.00
6:15 am 06:15 Partly Cloudy 63 17 54 12 73 73 NNE 7 11 30.00 1016 10 16 0.00 0.00
6:35 am 06:35 Partly Cloudy 63 17 54 12 73 73 NNE 6 9 30.00 1016 10 16 0.00 0.00
6:55 am 06:55 Partly Cloudy 63 17 54 12 73 73 NNE 6 9 30.00 1016 10 16 0.00 0.00
7:15 am 07:15 Mostly Cloudy 63 17 55 13 77 77 NNE 6 9 30.00 1016 10 16 0.00 0.00
7:35 am 07:35 Cloudy 63 17 55 13 77 77 NE 6 9 30.00 1016 10 16 0.00 0.00
7:55 am 07:55 Cloudy 64 18 55 13 73 73 NE 5 7 29.99 1016 10 16 0.00 0.00
8:15 am 08:15 Cloudy 64 18 54 12 68 68 NE 7 11 29.99 1016 10 16 0.00 0.00
8:35 am 08:35 Cloudy 64 18 54 12 68 68 NE 8 13 29.98 1015 10 16 0.00 0.00
8:55 am 08:55 Mostly Cloudy 68 20 54 12 60 60 ENE 7 11 29.98 1015 10 16 0.00 0.00
9:15 am 09:15 Partly Cloudy 68 20 54 12 60 60 ENE 10 17 29.97 1015 10 16 0.00 0.00
9:55 am 09:55 Sunny 70 21 54 12 57 57 ENE 9 15 29.95 1014 10 16 0.00 0.00
10:15 am 10:15 Partly Cloudy 70 21 54 12 57 57 E 7 11 29.94 1014 10 16 0.00 0.00
10:35 am 10:35 Mostly Cloudy 70 21 55 13 60 60 ENE 9 15 29.94 1014 10 16 0.00 0.00
10:55 am 10:55 Cloudy 70 21 55 13 60 60 E 3 6 29.93 1014 10 16 0.00 0.00
11:15 am 11:15 Cloudy 70 21 55 13 60 60 E 7 11 29.93 1014 10 16 0.00 0.00
11:35 am 11:35 Cloudy 70 21 55 13 60 60 E 6 9 29.92 1013 10 16 0.00 0.00
11:55 am 11:55 Cloudy 70 21 57 14 64 64 E 9 15 29.91 1013 10 16 0.00 0.00
12:15 pm 12:15 Cloudy 70 21 57 14 64 64 E 6 9 29.90 1013 10 16 0.00 0.00
12:35 pm 12:35 Cloudy 70 21 57 14 64 64 E 7 11 29.90 1013 10 16 0.00 0.00
12:55 pm 12:55 Mostly Cloudy 70 21 59 15 69 69 E 9 15 29.89 1012 10 16 0.00 0.00
1:15 pm 13:15 Cloudy 70 21 59 15 69 69 ESE 3 6 29.88 1012 10 16 0.00 0.00
1:35 pm 13:35 Cloudy 70 21 59 15 69 69 E 7 11 29.87 1012 10 16 0.00 0.00
1:55 pm 13:55 Cloudy with Light Rain 72 22 61 16 69 69 ESE 3 6 29.86 1011 10 16 0.00 0.00
2:15 pm 14:15 Cloudy 72 22 61 16 69 69 ESE 9 15 29.85 1011 10 16 0.00 0.00
2:35 pm 14:35 Cloudy 72 22 61 16 69 69 ESE 7 11 29.84 1010 10 16 0.00 0.00
2:55 pm 14:55 Cloudy 72 22 61 16 69 69 ESE 3 6 29.82 1010 10 16 0.00 0.00
3:15 pm 15:15 Cloudy 70 21 61 16 73 73 ESE 7 11 29.81 1009 10 16 0.00 0.00
3:35 pm 15:35 Cloudy 70 21 61 16 73 73 ESE 7 11 29.81 1009 10 16 0.00 0.00
3:55 pm 15:55 Cloudy 70 21 61 16 73 73 ESE 7 11 29.80 1009 10 16 0.00 0.00
4:15 pm 16:15 Cloudy 70 21 61 16 73 73 E 9 15 29.79 1009 10 16 0.00 0.00
4:35 pm 16:35 Cloudy 68 20 61 16 78 78 ENE 6 9 29.78 1009 10 16 0.00 0.00
4:55 pm 16:55 Cloudy 68 20 61 16 78 78 E 5 7 29.77 1008 10 16 0.00 0.00
5:15 pm 17:15 Cloudy 68 20 63 17 83 83 ENE 6 9 29.76 1008 10 16 0.00 0.00
5:35 pm 17:35 Cloudy 68 20 63 17 83 83 NE 8 13 29.76 1008 10 16 0.00 0.00
5:55 pm 17:55 Cloudy with Light Rain 68 20 63 17 83 83 ENE 6 9 29.76 1008 10 16 0.00 0.00
6:15 pm 18:15 Cloudy with Light Rain 64 18 63 17 94 94 ENE 6 9 29.75 1008 5 8 0.02 0.51
6:35 pm 18:35 Cloudy with Light Rain 64 18 63 17 94 94 NE 6 9 29.75 1008 10 16 0.02 0.51
6:55 pm 18:55 Cloudy with Heavy Rain 63 17 61 16 94 94 NE 7 11 29.77 1008 4 6 0.05 1.27
7:15 pm 19:15 Cloudy with Light Rain 61 16 61 16 100 100 NNE 7 11 29.77 1008 7 11 0.01 0.25
7:35 pm 19:35 Cloudy with Rain 61 16 61 16 100 100 NE 8 13 29.77 1008 5 8 0.02 0.51
7:55 pm 19:55 Cloudy with Light Rain 61 16 61 16 100 100 NE 9 15 29.77 1008 7 11 0.03 0.76
8:15 pm 20:15 Cloudy with Light Rain 59 15 59 15 100 100 NE 8 13 29.77 1008 7 11 0.00 0.00
8:35 pm 20:35 Cloudy with Rain 59 15 59 15 100 100 NNE 8 13 29.77 1008 10 16 0.01 0.25
8:55 pm 20:55 Cloudy with Light Rain 59 15 59 15 100 100 NNE 7 11 29.78 1008 7 11 0.06 1.52
9:15 pm 21:15 Cloudy with Heavy Rain 57 14 57 14 100 100 NE 7 11 29.77 1008 3 5 0.08 2.03
9:35 pm 21:35 Cloudy with Light Rain 57 14 57 14 100 100 NE 6 9 29.78 1008 7 11 0.10 2.54
9:55 pm 21:55 Cloudy with Rain 57 14 57 14 100 100 ENE 8 13 29.77 1008 7 11 0.12 3.05
10:15 pm 22:15 Cloudy with Light Rain 55 13 55 13 100 100 NE 6 9 29.77 1008 7 11 0.01 0.25
10:35 pm 22:35 Cloudy with Drizzle 55 13 55 13 100 100 NE 3 6 29.78 1009 10 16 0.02 0.51
10:55 pm 22:55 Cloudy with Light Rain 55 13 55 13 100 100 NNE 5 7 29.78 1009 10 16 0.02 0.51
11:15 pm 23:15 Cloudy with Light Rain 54 12 54 12 100 100 NNE 6 9 29.78 1009 10 16 0.00 0.00
11:35 pm 23:35 Cloudy with Light Rain 54 12 54 12 100 100 NNE 5 7 29.78 1009 10 16 0.00 0.00
11:55 pm 23:55 Cloudy with Drizzle 54 12 54 12 100 100 NE 8 13 29.78 1009 10 16 0.00 0.00

Powered by AerisWeather